STARLINK-5864 (55940 NORAD) Tracking and Keplerian Element Data

This shows tracking and keplerian element data for the satellite.

Feedback or suggestion? Click here.




ElementValue
Catalog55940
NameSTARLINK-5864
Epoch Orbit839
Epoch Day126.86816137
Epoch Year2023
RAAN40.2111
Inclination70.0018
Eccentricity0.0003403
Argument of Perigee260.8833
Mean Anonmoly99.1978
Mean Motion15.69938345
Decay Rate3.602E-05
L11 55940U 23037AC 23126.86816137 .00003602 00000+0 31691-4 0 9996
L22 55940 70.0018 40.2111 0003403 260.8833 99.1978 15.69938345 8396



Live tracking and technical data element details for STARLINK-5864 (NORAD 55940). STARLINK-5864 can be tracked NOW for your location showing map with azimuth and elevation plus other details from your city location.







IsCatalogInMostPopularTable: catalog: 55940, numindb: 8
Update: records affected: 1



GetName: 55940 STARLINK-5864

Hit Count: updated at: Tue, 06 Jun 2023 01:48:38 GMT